GFSFLT2_850_temp_231.txt.gz
Temp
20 19 19 19 19 19 19 18 18 18 18 18 18 18 17 17 17 17 17 17 16 16 16 15 15 15 15 15 15 15 15 15
20 20 20 19 18 19 18 18 18 18 18 18 18 17 17 17 17 17 17 17 16 16 16 16 15 15 15 15 15 15 15 15
19 20 20 19 18 18 18 18 18 18 17 18 18 18 17 17 17 17 17 17 16 16 16 16 15 15 15 15 15 15 15 15
19 19 20 19 18 19 18 18 18 18 18 18 18 18 18 18 17 17 17 17 16 16 16 15 15 15 15 15 15 15 15 14
19 19 20 19 19 19 18 19 19 18 18 18 18 18 18 17 17 17 17 16 16 16 15 15 15 15 15 15 15 15 15 15
19 19 19 19 19 19 19 20 19 19 19 18 18 18 17 17 17 17 16 16 16 15 14 14 14 15 15 15 15 15 15 14
19 20 20 19 19 19 20 20 19 19 19 19 18 18 17 17 16 16 16 15 15 15 14 14 14 14 14 15 15 15 15 15
20 20 20 19 20 20 19 19 19 19 19 19 18 18 17 16 16 16 16 15 15 14 14 14 14 14 14 14 14 14 14 14
21 20 20 20 20 19 19 19 19 19 19 18 18 17 17 16 16 16 16 15 15 14 14 14 14 14 14 14 14 14 14 14
20 20 20 19 19 19 19 19 18 18 18 18 17 17 16 16 16 16 15 15 14 14 14 14 14 14 14 14 14 14 14 14
20 20 20 19 19 19 19 19 19 18 18 17 17 16 16 16 15 15 15 15 14 14 14 14 14 14 14 14 15 15 15 15
20 20 20 19 19 19 18 19 18 18 17 17 16 16 16 15 15 15 15 15 15 15 14 14 14 15 14 14 15 15 15 15
21 20 20 19 19 19 19 20 19 18 18 16 16 15 15 15 15 15 15 15 15 15 14 14 14 14 14 15 14 14 15 15
21 21 20 20 20 20 19 20 19 18 17 16 15 15 15 15 16 15 15 15 15 15 15 14 14 14 13 13 12 12 13 13
22 22 21 20 20 19 19 18 18 17 16 16 15 16 16 16 16 16 15 14 14 14 14 14 13 13 12 12 11 12 11 12
23 22 21 20 19 19 18 19 18 17 17 16 16 16 16 15 15 14 14 14 13 13 13 13 12 12 11 11 10 10 10 10
23 22 21 20 20 19 19 18 17 17 17 16 16 15 15 15 14 14 13 13 13 13 12 12 12 12 11 10 9 9 8 8
21 21 20 20 20 19 19 17 17 17 16 15 14 14 14 13 13 13 13 13 13 12 12 12 11 11 10 9 8 8 7 7
21 20 20 20 19 19 18 17 16 16 15 14 14 14 12 12 12 12 12 12 12 11 11 10 10 9 9 9 8 8 8 7
20 20 20 19 18 17 16 15 14 14 14 14 12 13 12 12 12 12 12 11 11 10 10 9 9 9 9 9 8 8 7 7

GFSFLT2_850_temp_234.txt.gz
Temp
20 19 19 19 19 19 19 19 18 18 18 18 18 18 18 18 18 18 17 17 17 17 16 16 16 16 16 16 16 16 15 15
19 19 19 18 18 18 18 18 18 18 18 18 18 17 17 18 18 17 17 17 16 17 16 16 16 16 16 16 15 15 14 15
16 17 18 18 18 18 18 17 18 18 17 17 17 17 17 17 17 17 17 16 16 16 16 16 16 16 16 16 16 15 14 15
16 15 17 18 17 18 17 17 17 17 17 17 17 14 15 15 17 16 16 16 15 15 16 16 16 14 14 16 14 14 14 14
18 15 15 17 16 17 17 15 15 16 15 17 14 14 15 15 15 16 16 16 15 15 15 14 13 14 13 14 14 15 15 14
18 17 17 18 16 18 18 15 15 15 14 14 14 14 14 14 14 14 14 14 14 14 14 13 13 13 14 14 14 14 14 14
18 18 19 19 19 18 18 15 18 17 16 18 16 14 14 14 14 14 15 14 14 14 14 14 13 13 14 14 14 14 14 14
19 19 19 19 19 19 19 19 19 18 18 18 17 16 15 14 14 14 14 14 14 14 14 14 14 14 14 14 14 14 13 14
21 20 20 19 19 19 19 19 18 18 19 18 17 17 17 16 15 14 14 14 13 15 14 14 14 14 14 14 14 14 14 14
20 20 20 20 20 19 19 19 19 19 18 18 17 17 17 17 15 15 14 14 14 14 14 14 14 14 14 14 14 14 14 14
19 21 20 20 19 18 18 18 18 18 17 16 18 18 17 17 16 15 14 14 14 14 15 15 14 14 14 14 14 14 14 14
17 20 20 19 18 17 16 16 18 16 14 14 17 17 17 16 15 14 14 14 14 14 14 14 14 14 15 15 14 14 14 13
17 18 19 19 19 17 15 17 16 15 16 17 17 17 17 16 14 15 15 14 14 14 14 14 14 14 14 15 15 14 14 14
18 17 16 19 19 18 15 15 15 14 15 18 17 16 16 16 15 15 14 14 14 15 15 15 15 15 13 14 14 15 14 14
18 18 18 19 19 17 15 15 14 14 15 17 17 16 16 15 15 15 15 15 15 15 15 14 14 14 13 13 12 15 14 14
19 18 17 17 16 16 17 17 18 18 17 16 16 16 16 16 15 15 15 15 15 15 14 14 13 13 12 12 11 11 12 13
19 18 17 16 16 18 17 17 16 15 15 17 17 16 16 15 15 15 15 15 14 13 13 13 12 11 10 10 9 9 9 9
18 18 17 16 16 17 16 18 16 16 17 17 17 16 15 16 15 15 14 13 13 12 12 11 11 10 9 9 9 9 10 10
18 17 17 16 15 15 16 17 15 14 16 16 17 16 16 14 14 14 13 12 12 12 12 12 12 11 11 10 10 7 9 7
16 17 16 16 15 15 16 15 15 14 15 16 17 17 14 13 13 13 12 12 12 12 12 12 12 11 11 10 9 9 8 8

GFSFLT2_850_temp_240.txt.gz
Temp
20 20 20 20 20 19 19 19 19 19 19 19 19 19 18 18 18 18 18 17 17 17 17 17 17 17 17 17 17 17 16 16
20 20 20 20 19 19 19 19 19 19 19 19 18 18 18 18 18 18 17 17 17 17 16 17 17 17 17 17 17 16 16 17
20 20 20 20 20 19 19 19 19 18 18 18 18 18 18 18 17 17 17 17 17 16 16 16 16 17 17 17 17 16 16 16
19 20 20 20 19 19 18 18 18 18 18 18 17 17 17 17 17 17 17 17 17 16 16 16 16 16 16 16 16 16 17 16
17 18 19 19 18 19 18 18 18 18 17 18 17 16 16 15 16 16 17 17 17 16 16 16 15 15 15 15 15 16 17 16
18 17 18 19 16 18 18 18 18 17 17 17 17 15 15 15 16 16 17 17 17 16 16 16 15 15 16 15 15 16 16 16
18 17 17 18 16 18 18 18 17 17 17 17 17 16 16 16 15 16 16 16 16 16 16 15 15 15 15 15 14 15 16 16
19 18 17 18 17 17 18 17 17 17 16 16 16 16 16 16 16 16 16 16 16 16 16 16 16 15 15 15 15 15 15 15
19 18 18 17 18 17 17 17 17 17 16 16 16 16 16 16 16 16 16 16 17 16 16 16 16 16 15 15 15 15 15 15
19 18 18 17 17 17 17 17 17 17 17 16 16 16 16 16 16 16 16 16 16 16 16 16 16 16 15 15 16 15 15 15
20 19 18 17 17 17 17 17 17 17 17 17 17 17 16 15 16 15 16 16 16 16 16 16 16 15 16 16 16 16 15 16
21 19 18 17 17 17 17 17 17 16 17 18 18 18 17 15 15 15 15 15 15 16 16 16 16 16 16 15 16 16 16 16
22 20 18 17 17 16 16 16 16 16 15 17 18 19 18 17 16 15 15 15 15 15 16 16 16 16 15 16 16 16 16 16
22 21 20 18 17 17 16 16 16 15 16 16 16 17 18 17 17 15 15 15 15 15 16 15 15 15 15 15 15 16 16 15
22 22 21 20 19 16 16 16 16 16 16 16 16 16 17 17 17 16 15 15 15 15 15 15 15 15 15 15 14 15 15 15
22 21 21 20 18 16 16 17 17 17 17 16 16 16 16 16 18 16 15 15 15 15 15 15 15 15 15 14 14 14 14 15
23 21 20 20 18 18 17 17 17 17 17 16 16 16 16 16 17 16 15 15 15 15 16 15 15 15 14 14 14 13 13 14
24 22 20 19 19 18 17 17 17 17 17 16 16 16 16 16 16 16 15 16 16 15 15 15 15 14 14 13 13 13 12 12
25 23 21 20 19 19 18 18 18 18 17 17 16 16 15 16 16 16 16 16 15 15 15 13 13 12 12 12 12 12 12 12
25 25 22 21 20 19 19 18 17 18 18 17 17 18 16 16 15 16 16 15 15 14 13 12 13 12 12 12 12 12 12 12

GFSFLT2_850_temp_246.txt.gz
Temp
21 20 20 20 20 19 19 19 19 19 19 19 19 19 19 19 18 18 18 18 18 18 17 17 17 17 17 17 16 16 15 15
21 21 20 20 19 19 19 19 19 19 19 19 19 19 19 19 19 18 18 18 18 18 17 17 17 17 17 17 17 16 15 15
21 21 20 20 19 19 19 19 19 19 18 18 18 19 19 19 19 18 18 18 18 18 18 18 17 17 17 17 16 16 16 16
21 21 20 19 19 19 18 18 19 19 18 19 18 19 19 19 19 19 18 18 18 18 18 17 17 17 17 16 16 16 16 16
21 21 20 20 19 18 18 19 19 19 19 19 18 18 18 18 18 19 19 18 18 18 18 17 17 16 16 16 16 15 15 16
20 21 21 20 19 19 19 19 19 19 19 18 18 18 18 18 18 18 18 18 18 17 17 17 16 16 16 16 16 16 15 16
20 20 20 20 20 19 19 19 19 19 19 18 18 18 18 18 18 18 18 18 18 17 16 16 16 16 16 16 15 15 15 15
19 20 20 20 20 19 20 20 19 19 19 19 18 18 18 18 18 18 18 18 18 17 16 16 16 16 16 16 15 15 15 15
20 20 20 20 20 20 20 20 20 19 19 18 18 18 18 18 18 17 17 17 16 16 16 16 16 16 16 16 16 16 15 15
22 21 21 20 20 19 19 19 19 19 19 19 18 18 18 18 18 17 17 16 16 16 16 16 16 16 16 16 16 16 16 15
21 21 21 20 20 19 19 19 19 19 19 18 18 18 17 17 18 17 16 16 16 16 16 16 16 16 16 16 16 16 15 15
23 22 20 20 19 18 18 18 18 18 18 18 18 18 17 16 16 16 16 16 16 16 16 16 16 16 16 15 16 16 15 15
22 22 21 19 19 18 17 18 18 18 18 18 18 17 17 16 16 16 16 16 16 16 16 16 16 16 15 16 16 15 15 15
23 22 22 20 20 20 18 17 17 17 17 17 17 17 17 16 16 16 17 16 16 16 16 16 15 15 15 15 15 15 16 15
23 23 23 22 21 19 18 16 17 16 17 16 17 17 17 17 17 16 17 16 16 16 16 16 15 15 15 15 15 15 15 15
24 23 23 23 21 19 19 20 18 18 17 16 16 16 16 17 16 16 16 16 16 16 16 16 15 15 15 15 15 15 15 14
25 24 23 22 22 21 20 20 21 18 17 16 16 16 17 16 17 17 16 16 16 16 16 16 15 15 15 15 15 14 15 14
25 24 23 22 22 22 21 21 20 18 17 17 17 16 17 17 17 18 17 17 16 16 16 16 15 15 15 15 15 15 14 14
24 24 23 22 22 21 22 22 20 21 21 20 18 17 16 17 18 18 18 17 17 16 16 16 15 15 15 15 15 14 15 14
24 24 23 22 22 22 22 22 21 21 21 21 21 20 19 18 18 18 18 17 17 16 15 16 15 15 15 15 14 14 14 14